STARLINK-3068, 49154

Orbit data source: Space-Track

STARLINK-3068, 49154 is a payload satellite owned by SpaceX/Seattle (US) in LEO that was launched on Tue, 14 Sep 2021 UTC via an FALCON 9 launch vehicle from the Air Force Western Test Range (AFWTR). Payload-class satellites include a variety of spacecraft equipped with specific instruments for various scientific and technological missions. These include communications satellites like Starlink; space stations such as the ISS; scientific satellites like the Hubble; Earth observation satellites from companies like Planet Labs, Umbra, and HawkEye 360; GPS; miniature CubeSats for education and research; and military/defense satellites.

Loading next visibility...
Identifier
49154, 2021-082AA
Orbit
LEO
Country
Flag of USUS
Related business
Manufacturer
SpaceX/Seattle
Mission
Operational Commercial Communications
Bus & Motor
STARLINK, Unknown motor
Mass
297 kg wet, ~275 kg dry
Launch date (UTC)
2021-09-14 (4 years ago)
Launch vehicle
FALCON 9
Launch site
Air Force Western Test Range (AFWTR)
Object type
Payload
Rocket body
Debris
Shape & HBR
Box + 1 Pan, 10.1 m
Radar Cross Section
13.562 m², Large (>1 m²)

Expand to show TLE details & history
Last TLE update: 10 hours ago

TLE from 10 hours ago
0 STARLINK-3068
1 49154U 21082AA  25310.75525620  .00002099  00000-0  18750-3 0  9993
2 49154  69.9999 224.8001 0002897 271.1261  88.9566 14.97519458229120
Epoch: 2025-11-06T18:07Z
TLE epoch observation values (Epoch: 2025-11-06T18:07:34.135Z)
Latitude
-0.00001°
Longitude
-93.30115°
Altitude
576.95 km
Speed
7.573 km/s
True Right ascension
14h 59m 12s
True Declination
0° 00' 00"
Sunlit
Object was in daylight at epoch
Visualization orbit readout
Latitude
Unknown
Longitude
Unknown
Altitude
Unknown
Speed
Unknown
Apparent Right ascension
Unknown
Apparent Declination
Unknown
Sunlit
N/A
Visualization observer readout
Local Sidereal Time
00:10:46
Azimuth
Unknown
Elevation
Unknown
Doppler factor
Unknown
Orbital elements
Apogee altitude
574.526 km
Perigee altitude
570.499 km
Semi-major axis
6,950.65 km
Eccentricity
0.00029
Inclination
69.9999°
RAAN
224.8001°
Arg. of periapsis
271.1261°
True anomaly
88.98979°
Mean anomaly
88.9566°
Eccentric anomaly
88.9732°
Mean motion
3.74546 °/min
Orbital period
96.12 mins
BSTAR
0.0001875
Loading maneuver chart data...
Computing Atmospheric mass density...

Documentation

Showing up to 5 results
|